Location: CNYAC Observatory
(43.2150°N, 74.9500°W)
Time: 02:54:41
(UTC-04:00)

Daily predictions for brighter satellites

Satellite Brightness Start Highest point End
(mag) Time Altitude Azimuth Time Altitude Azimuth Time Altitude Azimuth
Cosmos 1400 Rocket 4.2 00:05:57 28° E 00:05:57 28° E 00:09:15 10° NNE
Cosmos 304 Rocket 3.9 00:06:04 10° NNW 00:10:48 61° WSW 00:11:32 53° SSW
Cosmos 1455 3.1 00:09:08 10° NNW 00:12:45 38° W 00:12:57 37° W
Cosmos 1666 Rocket 3.4 00:14:40 69° SSW 00:15:12 88° W 00:19:42 10° N
Cosmos 1844 Rocket 3.3 00:16:14 36° ESE 00:16:42 36° ESE 00:21:46 10° NE
Cosmos 1943 4.2 00:14:19 10° NW 00:19:16 32° WSW 00:20:39 28° SW
Cosmos 1862 Rocket 4.2 00:18:16 10° N 00:22:26 41° ENE 00:22:52 40° E
Cosmos 967 Rocket 4.4 00:17:40 10° NNW 00:24:04 86° ENE 00:26:22 43° SE
Cosmos 1933 Rocket 4.2 00:24:43 41° E 00:24:46 41° E 00:28:53 10° NNE
Tsikada Rocket 4.0 00:23:22 45° SSE 00:25:23 73° E 00:31:45 10° NNE
Cosmos 1805 Rocket 4.3 00:26:04 37° WSW 00:26:57 43° WNW 00:31:07 10° N
CZ-2C R/B 3.3 00:28:02 50° S 00:29:39 80° WSW 00:35:24 10° NNW
Lacrosse 5 3.5 00:26:25 10° WNW 00:29:38 20° WSW 00:29:38 20° WSW
IKONOS-2 4.3 00:33:36 81° S 00:33:48 89° WSW 00:38:06 10° NNW
Cosmos 1633 Rocket 3.1 00:33:49 62° WSW 00:34:13 67° W 00:38:34 10° N
CZ-4C R/B 4.3 00:37:23 31° ENE 00:37:23 31° ENE 00:39:58 10° N
Cosmos 1892 4.1 00:41:17 28° E 00:41:17 28° E 00:44:18 10° NNE
Cosmos 2242 Rocket 3.6 00:42:22 10° NNW 00:46:57 70° W 00:47:18 66° SW
Cosmos 1816 Rocket 4.5 00:50:25 47° SSW 00:52:26 83° W 00:58:46 10° N
CZ-2C R/B 3.0 00:49:01 10° N 00:54:15 56° WNW 00:55:49 40° SW
Cosmos 968 Rocket 3.5 00:53:51 55° SW 00:55:00 79° WNW 01:00:18 10° NNE
Cosmos 1470 Rocket 3.6 01:01:55 64° WSW 01:02:12 66° W 01:06:39 10° N
Meteor 1-26 Rocket 4.1 00:57:56 10° N 01:03:31 78° E 01:04:49 53° SSE
Cosmos 2278 Rocket 3.0 01:03:25 35° ESE 01:04:08 36° ESE 01:09:16 10° NE
BREEZE-M DEB 3.5 00:55:33 10° WSW 01:05:10 75° NNW 01:08:10 10° ENE
H-2A R/B 3.9 01:02:55 10° NE 01:06:53 29° E 01:07:06 29° E
Cosmos 1844 3.6 01:07:54 56° S 01:09:02 75° ESE 01:14:40 10° NNE
Cosmos 2084 Rocket 3.5 01:08:18 10° NW 01:11:30 60° NW 01:11:30 60° NW
Cosmos 1538 Rocket 4.0 01:06:58 10° NNW 01:12:21 77° WSW 01:13:18 60° S
SL-24 R/B - RUBIN 2 3.8 01:09:21 10° NW 01:14:53 82° WSW 01:15:38 64° SSE
Cosmos 1933 4.1 01:12:31 10° NNW 01:16:12 42° W 01:16:12 42° W
Cosmos 1869 Rocket 4.2 01:17:09 43° ESE 01:17:22 43° E 01:21:31 10° NNE
COSMOS 2406 3.3 01:12:30 10° NNW 01:18:05 59° WSW 01:19:01 52° SSW
Okean 1-7 3.7 01:16:31 10° N 01:20:41 44° ENE 01:21:18 42° ESE
Cosmos 923 Rocket 4.3 01:15:48 10° NNW 01:20:58 59° ENE 01:22:35 40° SE
Cosmos 2279 Rocket 4.1 01:15:49 10° N 01:22:04 67° E 01:24:20 40° SSE
ALOS 2 4.1 01:23:03 24° W 01:23:03 24° W 01:26:35 10° NW
CZ-4C R/B 2.4 01:22:54 37° WSW 01:24:58 64° NW 01:30:59 10° NNE
Meteor 2-10 Rocket 4.1 01:21:02 10° NNW 01:26:07 46° W 01:27:04 42° WSW
Cosmos 1689 Rocket 3.4 01:27:08 43° N 01:27:08 43° N 01:29:21 10° N
Cosmos 1461 4.0 01:27:08 31° E 01:27:08 31° E 01:29:57 10° NE
Cosmos 292 Rocket 4.3 01:26:14 10° NNW 01:30:44 43° WSW 01:30:47 43° WSW
CZ-4B R/B 2.0 01:31:59 56° NNW 01:31:59 56° NNW 01:34:52 10° NNW
Cosmos 1315 Rocket 3.3 01:34:45 48° WNW 01:34:45 48° WNW 01:38:31 10° N
Landsat 5 3.4 01:36:20 73° WSW 01:36:26 74° WSW 01:40:38 10° NNW
Cosmos 2082 Rocket 3.5 01:31:24 10° N 01:36:32 35° NE 01:41:12 12° ESE
Meteor 2-3 Rocket 3.8 01:36:55 49° SSW 01:38:31 73° WNW 01:44:21 10° N
ATLAS 3B R/B 4.1 01:41:11 22° SE 01:43:36 27° ESE 01:49:26 10° ENE
PSLV R/B 4.1 01:39:45 10° NNE 01:44:01 48° E 01:44:32 46° ESE
Cosmos 1825 2.9 01:46:16 44° E 01:46:16 44° E 01:49:54 10° NNE
Cosmos 2112 Rocket 4.1 01:45:53 10° NNW 01:51:11 72° ENE 01:53:06 40° SE
Cosmos 773 Rocket 4.4 01:47:32 10° NNW 01:52:31 45° WSW 01:53:04 43° WSW
Cosmos 44 4.3 01:53:36 29° ESE 01:53:48 29° ESE 01:57:43 10° NE
Cosmos 1782 2.7 01:49:47 10° N 01:53:51 79° E 01:54:05 75° SE
Meteor 2-6 Rocket 4.2 01:51:30 10° N 01:57:03 76° E 01:59:08 40° SSE
Meteor 1-27 Rocket 4.4 01:51:55 10° N 01:57:44 52° ENE 02:00:55 26° SE
Abrixas 4.3 01:58:40 28° NNE 01:58:40 28° NNE 02:00:38 10° NE
Cosmos 1408 2.7 01:59:38 68° ENE 01:59:38 68° ENE 02:03:04 10° NNE
Cosmos 1844 Rocket 3.9 01:57:52 22° WSW 02:00:34 34° NW 02:05:40 10° N
Timation 1 Rocket 4.3 01:59:59 46° SSW 02:01:53 81° ESE 02:07:53 10° NNE
Cosmos 44 Rocket 3.8 02:02:28 41° SE 02:03:06 44° ESE 02:07:38 10° NE
Cosmos 1680 Rocket 3.4 01:58:46 10° NNW 02:04:04 77° WSW 02:05:27 50° S
Cosmos 1346 Rocket 3.6 02:06:16 10° NNW 02:09:34 37° W 02:09:34 37° W
Helios 1A Rocket 3.3 02:06:29 10° NNE 02:10:31 51° E 02:11:08 46° SE
Aureole 1 Rocket 4.3 02:03:47 10° NNW 02:10:34 87° WSW 02:15:28 27° SSE
Resurs 1-4 Rocket 4.2 02:11:59 10° NE 02:15:38 18° E 02:18:59 11° SE
Cosmos 2221 Rocket 4.2 02:14:40 10° NNW 02:18:49 39° W 02:19:08 38° WSW
Cosmos 1092 Rocket 4.2 02:16:54 33° SSE 02:19:49 66° E 02:26:02 10° NNE
Cosmos 1898 Rocket 3.6 02:22:53 42° S 02:24:33 66° ESE 02:29:46 10° NNE
Cosmos 1607 3.9 02:24:03 39° SSW 02:26:28 75° ESE 02:32:45 10° NE
SL-27 R/B 4.4 02:24:15 10° NW 02:25:39 18° WNW 02:25:39 18° WNW
SeaSat 1 2.5 02:26:04 26° SE 02:28:53 80° ENE 02:33:51 10° NNW
CZ-2D R/B 3.8 02:26:38 10° NE 02:31:03 25° E 02:34:35 14° SE
USA 238 DEB 4.5 02:31:18 26° SSE 02:34:33 41° ESE 02:40:59 10° NE
USA 238 4.5 02:31:24 26° SSE 02:34:39 40° ESE 02:41:05 10° NE
Cosmos 1606 3.6 02:32:30 10° NNW 02:36:01 35° W 02:36:01 35° W
ARIANE 5 R/B 4.2 02:33:20 10° NE 02:37:21 24° E 02:40:37 13° SE
SL-08 R/B 3.6 02:39:19 25° SSE 02:42:05 70° ENE 02:46:52 10° N
H-2A R/B 3.9 02:38:25 10° N 02:42:20 29° WNW 02:43:42 24° W
Cosmos 1340 2.5 02:38:43 10° N 02:42:31 85° W 02:43:13 58° S
CBERS-1 4.2 02:39:50 10° NNE 02:44:58 64° ESE 02:47:21 31° S
Genesis I 4.4 02:46:04 26° W 02:47:24 34° NW 02:51:01 10° NNE
Cosmos 2278 Rocket 3.3 02:45:15 22° WSW 02:48:12 35° NW 02:53:23 10° N
Cosmos 858 Rocket 4.4 02:51:18 36° SSW 02:53:26 81° WNW 02:58:39 10° NNE
Nadezhda 4 Rocket 4.4 02:50:38 30° SW 02:53:33 50° WNW 02:59:42 10° N
IRS-P3 4.1 02:49:04 10° NNE 02:54:27 90° WNW 02:57:02 32° SSW
Cosmos 1833 Rocket 2.7 02:50:19 10° NNW 02:55:54 62° WSW 02:58:54 27° S
CZ-3B DEB 4.1 02:42:55 10° NW 02:56:15 88° NE 03:07:41 10° SE
NPP 3.6 02:51:13 10° NNE 02:56:38 88° ESE 02:59:20 31° SSW
Cosmos 2369 Rocket 4.0 02:54:36 11° SSE 02:58:36 23° E 03:02:56 10° NE
Cosmos 1655 Rocket 4.3 02:55:50 21° SSE 03:00:07 63° E 03:06:18 10° NNE
GP-B 3.0 02:58:11 10° N 03:02:38 77° W 03:04:28 35° SSW
COSMOS 2487 2.6 02:59:35 10° NNW 03:03:03 52° WSW 03:03:26 49° SW
SL-16 R/B 2.7 03:01:34 10° SSE 03:07:43 76° ENE 03:13:58 10° NNW
Cosmos 2297 4.1 03:04:57 27° SW 03:07:56 53° WNW 03:13:29 10° NNE
UNK 4.1 03:04:25 15° SSE 03:08:14 66° ENE 03:12:54 10° N
Cosmos 2298 Rocket 4.2 03:07:34 30° SW 03:10:09 63° WNW 03:15:27 10° NNE
Cosmos 1437 4.0 03:07:38 10° N 03:10:43 38° ENE 03:12:58 16° SE
USA 267 4.1 03:05:57 10° ENE 03:11:53 36° SE 03:15:50 19° S
Cosmos 1975 Rocket 3.7 03:10:36 10° N 03:14:51 54° E 03:18:43 12° SSE
Cosmos 1812 3.3 03:11:43 10° N 03:15:32 54° E 03:18:29 16° SSE
Exosat Rocket 4.3 03:12:59 10° NW 03:18:22 50° WSW 03:24:04 16° S
ADEOS Rocket 3.5 03:12:06 10° NNE 03:19:51 86° WNW 03:25:04 21° SSW
Cosmos 1733 Rocket 4.2 03:19:01 24° WSW 03:20:34 30° WNW 03:24:28 10° NNW
Cosmos 2082 Rocket 2.8 03:15:31 10° NW 03:20:36 36° WSW 03:22:59 25° SSW
Cosmos 2150 Rocket 4.4 03:19:04 26° SW 03:22:04 57° WNW 03:27:27 10° NNE
Cosmos 1825 4.4 03:21:09 12° W 03:22:06 13° WNW 03:23:59 10° NW
Meteor 1-14 Rocket 4.4 03:20:21 21° S 03:24:32 84° E 03:30:33 10° NNE
USA 161 4.4 03:31:42 10° E 03:32:41 12° ENE 03:33:42 10° NE
Abrixas 4.4 03:30:57 10° NW 03:33:22 27° N 03:35:47 10° ENE
ATLAS 3B R/B 3.0 03:28:26 20° SW 03:33:48 71° NW 03:40:59 10° NNE
Cosmos 44 4.2 03:32:00 18° WSW 03:34:54 36° NW 03:39:03 10° NNE
S3M 3.9 03:33:06 10° N 03:39:19 83° W 03:45:27 10° S
Sich 1 Rocket 4.2 03:38:43 23° SW 03:41:13 45° WNW 03:45:39 10° N
ADEOS 3.6 03:38:48 10° NNE 03:44:04 89° W 03:48:13 16° SSW
MOZ.5/SAFIR/RUBIN 5/SL-8 4.2 03:40:33 10° SSE 03:45:16 68° ENE 03:49:59 10° N
Okean 3 4.3 03:41:50 10° NNW 03:45:39 33° W 03:47:40 21° SW
Cosmos 1048 Rocket 4.4 03:40:47 10° NNW 03:46:11 70° ENE 03:51:32 10° SSE
Resurs 1-4 Rocket 2.3 03:50:37 10° N 03:55:52 59° WNW 04:00:04 16° SSW
Okean 1 3.3 03:53:00 10° N 03:57:06 86° W 04:01:09 10° S
Cosmos 1633 2.8 03:54:43 13° S 03:57:53 71° E 04:01:32 10° NNE
BREEZE M DEB (TANK) 4.0 04:00:20 10° WNW 04:02:19 23° N 04:04:21 10° NE
MOS 1 Rocket 3.6 03:57:26 10° NNE 04:02:52 89° ESE 04:08:01 10° SSW
BREEZE-M DEB (TANK) 3.4 03:56:48 15° SW 04:03:15 49° SSE 04:06:17 10° ENE
BREEZE M DEB (TANK) 3.1 04:04:03 14° S 04:05:05 19° SE 04:06:55 10° E
BREEZE-M DEB (TANK) 2.2 04:04:03 19° SW 04:05:54 82° SSE 04:12:20 10° ENE
SeaSat 1 4.1 04:05:50 13° WSW 04:06:54 14° WSW 04:09:27 10° WNW
BREEZE-M R/B 3.0 04:01:26 10° WNW 04:07:43 87° NNE 04:10:57 10° ESE
Okean 2 Rocket 3.4 04:05:26 15° SSW 04:08:57 52° W 04:13:16 10° N
GRACE-1 3.8 04:07:29 11° S 04:10:02 83° E 04:12:45 10° N
GRACE-2 3.8 04:07:53 11° S 04:10:28 82° E 04:13:11 10° N
CZ-2D R/B 2.7 04:06:11 10° N 04:11:17 45° WNW 04:15:55 13° SW
Meteor 1-11 Rocket 4.4 04:06:21 10° S 04:11:53 55° E 04:17:34 10° NNE
Cosmos 1125 Rocket 3.7 04:11:41 13° SSW 04:16:25 66° WNW 04:21:42 10° NNE
ARIANE 5 R/B 3.1 04:11:56 10° N 04:16:37 41° WNW 04:20:57 12° SW
Cosmos 1441 Rocket 3.4 04:13:12 10° N 04:17:13 82° E 04:21:13 10° SSE
CZ-2D R/B 3.6 04:16:04 10° N 04:20:27 71° WNW 04:24:52 10° SSW
USA 238 DEB 4.3 04:18:44 10° WSW 04:25:24 48° NW 04:32:12 10° NNE
USA 238 4.3 04:18:50 10° WSW 04:25:30 49° NW 04:32:18 10° NNE
UNKNOWN OBJECT B 3.1 04:22:58 10° N 04:26:34 46° WNW 04:30:07 10° SSW
Cosmos 1300 Rocket 4.0 04:23:47 10° S 04:28:10 65° E 04:32:35 10° NNE
Okean O Rocket 2.7 04:34:00 10° NNE 04:38:13 44° E 04:42:25 10° S
Cosmos 1943 Rocket 2.3 04:34:02 10° SSW 04:39:42 85° ESE 04:45:21 10° NNE
Cosmos 2369 Rocket 2.6 04:36:45 10° SW 04:42:13 53° WNW 04:47:45 10° NNE
PSLV R/B 4.3 04:41:17 10° SW 04:44:13 30° SSE 04:47:11 10° E
Meteor 1-19 Rocket 4.3 04:39:19 10° NNW 04:44:52 64° W 04:50:28 10° S
Cosmos 405 Rocket 3.9 04:42:17 10° NW 04:45:36 26° W 04:48:52 10° SSW
CZ-3B DEB 4.4 04:37:56 10° WNW 04:49:24 39° WSW 04:58:47 10° S
COSMOS 2455 2.9 04:45:24 10° SSW 04:51:25 85° WNW 04:57:29 10° NNE
ADEOS II 2.3 04:46:21 10° NNE 04:51:39 78° ESE 04:56:54 10° S
SL-16 R/B 4.0 04:47:55 10° SW 04:51:58 18° W 04:56:02 10° NW
